Location: Étang Rond
(42.7927°N, 1.0661°E)
Time: 22:13:16
(UTC+00:00)

COSMOS 2428 - Pass Details

Date: 08 November 2025
Orbit: 847 x 852 km, 70.9° (Epoch: 12 December)

Event Time Altitude Azimuth Distance (km) Brightness Sun altitude
Exits shadow 04:41:24 22° 214° (SSW) 1,776 4.1 -21.8°
Maximum altitude 04:45:10 73° 296° (WNW) 886 2.6 -21.1°
Drops below altitude 10° 04:50:52 10° 21° (NNE) 2,478 5.3 -20.0°
Sets 04:53:20 0° 24° (NNE) 3,417 6.1 -19.6°
